This is the latest recevied weather packets stored in our database for station/object KF0JHJ. If no packets are shown the sender has not sent any weather packets the latest 1 day(s).
| Time | Temp. | Humidity | Pressure | Rain* | Wind** | Luminosity | Snow |
|---|---|---|---|---|---|---|---|
| 1778081562 | 3.89° C | 59% | 1015 hPa | - | - | 98 W/m² | - |
| 1778081259 | 3.89° C | 61% | 1014.9 hPa | - | - | 98 W/m² | - |
| 1778080048 | 3.89° C | 60% | 1015 hPa | - | - | 83 W/m² | - |
| 1778079745 | 3.89° C | 60% | 1014.9 hPa | - | - | 83 W/m² | - |
| 1778078836 | 3.89° C | 62% | 1015 hPa | - | - | 77 W/m² | - |
| 1778078533 | 3.33° C | 63% | 1015.1 hPa | - | - | 78 W/m² | - |
| 1778078231 | 3.33° C | 62% | 1015.1 hPa | - | - | 75 W/m² | - |
| 1778077627 | 3.33° C | 62% | 1014.9 hPa | - | - | 73 W/m² | - |
| 1778075508 | 2.78° C | 65% | 1015 hPa | - | - | 39 W/m² | - |
| 1778074899 | 2.78° C | 66% | 1015 hPa | - | - | 34 W/m² | - |
| 1778074597 | 2.78° C | 66% | 1014.8 hPa | - | - | 33 W/m² | - |
| 1778074294 | 2.78° C | 66% | 1015 hPa | - | - | 33 W/m² | - |
| 1778073688 | 2.22° C | 66% | 1014.8 hPa | - | - | 31 W/m² | - |
| 1778072779 | 2.22° C | 68% | 1014.8 hPa | - | - | 24 W/m² | - |
| 1778070663 | 2.22° C | 69% | 1014.4 hPa | - | - | 18 W/m² | - |
| 1778070359 | 2.22° C | 69% | 1014.1 hPa | - | - | 17 W/m² | - |
| 1778068846 | 2.22° C | 69% | 1013.5 hPa | - | - | 11 W/m² | - |
| 1778068544 | 2.22° C | 69% | 1013.7 hPa | - | - | 9 W/m² | - |
| 1778067032 | 1.67° C | 73% | 1013.1 hPa | - | - | 2 W/m² | - |
| 1778066124 | 1.67° C | 76% | 1013.2 hPa | - | - | 0 W/m² | - |
| 1778064609 | 1.67° C | 76% | 1012.8 hPa | - | - | 0 W/m² | - |
| 1778063398 | 0.56° C | 80% | 1013.3 hPa | - | - | 0 W/m² | - |
| 1778062187 | 0.56° C | 79% | 1013.1 hPa | - | - | 0 W/m² | - |
| 1778061885 | 0.56° C | 79% | 1013 hPa | - | - | 0 W/m² | - |
| 1778061281 | 0.56° C | 78% | 1013 hPa | - | - | 0 W/m² | - |
* Rain since midnight (hover to see other rain measurements)
** Current wind speed in m/s (hover to see current wind gust speed)